Weather History for Kelso-Longview, WA

Change the Weather History Date:

Monday, October 8, 2012

  Actual Average Record
Temperature  
Mean Temperature 50 °F -  
Max Temperature 66 °F 61 °F 75 °F (1996)
Min Temperature 35 °F 45 °F 35 °F (2012)
Degree Days  
Heating Degree Days 14    
Moisture  
Dew Point 39 °F    
Average Humidity 68    
Maximum Humidity 93    
Minimum Humidity 43    
Precipitation  
Precipitation 0.00 in - - ()
Sea Level Pressure  
Sea Level Pressure 29.99 in    
Wind  
Wind Speed 1 mph (NW)    
Max Wind Speed 8 mph    
Max Gust Speed -    
Visibility 10 miles    
Events      
Averages and records for this station are not official NWS values.
T = Trace of Precipitation, MM = Missing Value Source: NWS Daily Summary

Daily Weather History Graph

Daily Weather History Graph

Search for Another Location

Airport:

Trip Planner

Search our weather history database for the weather conditions in past years. The results will help you decide how hot, cold, wet, or windy it might be!

Date:

Astronomy

Oct. 08, 2012 Rise Set
Actual Time 7:19 AM PDT 6:37 PM PDT
Civil Twilight 6:50 AM PDT 7:07 PM PDT
Nautical Twilight 6:15 AM PDT 7:41 PM PDT
Astronomical Twilight 5:40 AM PDT 8:16 PM PDT
Moon No Moon Rise 2:50 PM PDT (10/8)
Length of Visible Light 12h 17m
Length of Day
11h 17m
Last Quarter, 45% of the Moon is Illuminated
Oct 8
Last Quarter
Oct 15
New
Oct 21
First Quarter
Oct 29
Full
Nov 6
Last Quarter

Hourly Weather History & Observations

Time (PDT) Temp. Dew Point Humidity Pressure Visibility Wind Dir Wind Speed Gust Speed Precip Events Conditions
12:15 AM 42.8 °F 35.6 °F 76% 29.94 in 10.0 mi Calm Calm - N/A   Clear
12:35 AM 44.6 °F 35.6 °F 71% 29.95 in 10.0 mi Calm Calm - N/A   Clear
12:55 AM 42.8 °F 35.6 °F 76% 29.95 in 10.0 mi Calm Calm - N/A   Clear
1:15 AM 42.8 °F 33.8 °F 70% 29.95 in 10.0 mi Calm Calm - N/A   Clear
1:55 AM 41.0 °F 35.6 °F 81% 29.95 in 10.0 mi Calm Calm - N/A   Clear
2:15 AM 41.0 °F 35.6 °F 81% 29.96 in 10.0 mi Calm Calm - N/A   Clear
2:35 AM 39.2 °F 32.0 °F 75% 29.96 in 10.0 mi Calm Calm - N/A   Clear
2:55 AM 39.2 °F 33.8 °F 81% 29.95 in 10.0 mi Calm Calm - N/A   Clear
3:15 AM 39.2 °F 35.6 °F 87% 29.95 in 10.0 mi Calm Calm - N/A   Clear
3:35 AM 37.4 °F 33.8 °F 87% 29.95 in 10.0 mi Calm Calm - N/A   Clear
3:55 AM 39.2 °F 33.8 °F 81% 29.96 in 10.0 mi Calm Calm - N/A   Clear
4:15 AM 37.4 °F 32.0 °F 81% 29.97 in 10.0 mi Calm Calm - N/A   Clear
4:35 AM 37.4 °F 30.2 °F 75% 29.97 in 10.0 mi Calm Calm - N/A   Clear
4:55 AM 37.4 °F 33.8 °F 87% 29.97 in 10.0 mi Calm Calm - N/A   Clear
5:15 AM 37.4 °F 32.0 °F 81% 29.97 in 10.0 mi Calm Calm - N/A   Clear
5:35 AM 37.4 °F 32.0 °F 81% 29.98 in 10.0 mi Calm Calm - N/A   Clear
5:55 AM 37.4 °F 32.0 °F 81% 29.98 in 10.0 mi Calm Calm - N/A   Clear
6:15 AM 37.4 °F 32.0 °F 81% 29.98 in 10.0 mi Calm Calm - N/A   Clear
6:35 AM 37.4 °F 32.0 °F 81% 29.98 in 10.0 mi Calm Calm - N/A   Clear
6:55 AM 35.6 °F 32.0 °F 87% 29.98 in 6.0 mi Calm Calm - N/A   Clear
7:15 AM 35.6 °F 33.8 °F 93% 29.99 in 10.0 mi Calm Calm - N/A   Clear
7:35 AM 35.6 °F 30.2 °F 81% 29.99 in 10.0 mi Calm Calm - N/A   Clear
7:55 AM 37.4 °F 33.8 °F 87% 30.00 in 5.0 mi Calm Calm - N/A   Clear
8:15 AM 37.4 °F 33.8 °F 87% 30.01 in 10.0 mi Calm Calm - N/A   Clear
8:35 AM 42.8 °F 35.6 °F 76% 30.01 in 7.0 mi Calm Calm - N/A   Clear
8:55 AM 44.6 °F 35.6 °F 71% 30.01 in 7.0 mi Calm Calm - N/A   Clear
9:15 AM 46.4 °F 37.4 °F 71% 30.01 in 10.0 mi Calm Calm - N/A   Clear
9:35 AM 46.4 °F 37.4 °F 71% 30.02 in 10.0 mi Calm Calm - N/A   Clear
9:55 AM 48.2 °F 39.2 °F 71% 30.02 in 10.0 mi Calm Calm - N/A   Clear
10:15 AM 50.0 °F 41.0 °F 71% 30.01 in 10.0 mi Calm Calm - N/A   Clear
10:35 AM 51.8 °F 41.0 °F 67% 30.02 in 10.0 mi Calm Calm - N/A   Clear
10:55 AM 51.8 °F 39.2 °F 62% 30.02 in 10.0 mi Calm Calm - N/A   Clear
11:15 AM 53.6 °F 39.2 °F 58% 30.02 in 10.0 mi Calm Calm - N/A   Clear
11:35 AM 55.4 °F 39.2 °F 54% 30.01 in 10.0 mi Calm Calm - N/A   Clear
11:55 AM 57.2 °F 39.2 °F 51% 30.01 in 10.0 mi Calm Calm - N/A   Clear
12:15 PM 57.2 °F 42.8 °F 59% 30.01 in 9.0 mi Calm Calm - N/A   Clear
12:35 PM 60.8 °F 42.8 °F 52% 30.00 in 8.0 mi Calm Calm - N/A   Clear
12:55 PM 60.8 °F 42.8 °F 52% 30.00 in 9.0 mi Calm Calm - N/A   Clear
1:15 PM 62.6 °F 42.8 °F 48% 30.00 in 10.0 mi Calm Calm - N/A   Clear
1:35 PM 64.4 °F 42.8 °F 45% 29.99 in 10.0 mi Calm Calm - N/A   Clear
1:55 PM 64.4 °F 42.8 °F 45% 29.98 in 10.0 mi Calm Calm - N/A   Clear
2:15 PM 66.2 °F 44.6 °F 46% 29.98 in 10.0 mi Calm Calm - N/A   Clear
2:35 PM 66.2 °F 42.8 °F 43% 29.97 in 10.0 mi NNW 3.5 mph - N/A   Clear
2:55 PM 66.2 °F 44.6 °F 46% 29.97 in 10.0 mi NNW 3.5 mph - N/A   Clear
3:15 PM 66.2 °F 42.8 °F 43% 29.97 in 10.0 mi NW 4.6 mph - N/A   Clear
3:35 PM 66.2 °F 42.8 °F 43% 29.97 in 10.0 mi WNW 8.1 mph - N/A   Clear
3:55 PM 66.2 °F 42.8 °F 43% 29.97 in 10.0 mi WNW 5.8 mph - N/A   Clear
4:15 PM 66.2 °F 42.8 °F 43% 29.97 in 10.0 mi NNW 4.6 mph - N/A   Clear
4:35 PM 66.2 °F 42.8 °F 43% 29.98 in 10.0 mi WNW 6.9 mph - N/A   Clear
4:55 PM 66.2 °F 44.6 °F 46% 29.98 in 10.0 mi NW 5.8 mph - N/A   Clear
5:15 PM 64.4 °F 44.6 °F 49% 29.98 in 10.0 mi NW 3.5 mph - N/A   Clear
5:35 PM 62.6 °F 46.4 °F 55% 29.98 in 10.0 mi NW 3.5 mph - N/A   Clear
5:55 PM 62.6 °F 44.6 °F 52% 29.98 in 10.0 mi NW 5.8 mph - N/A   Clear
6:15 PM 60.8 °F 44.6 °F 55% 29.99 in 10.0 mi NW 4.6 mph - N/A   Clear
6:35 PM 59.0 °F 44.6 °F 59% 29.99 in 10.0 mi WNW 3.5 mph - N/A   Clear
6:55 PM 57.2 °F 44.6 °F 63% 30.00 in 10.0 mi Calm Calm - N/A   Clear
7:15 PM 55.4 °F 44.6 °F 67% 30.01 in 10.0 mi NW 3.5 mph - N/A   Clear
7:35 PM 55.4 °F 44.6 °F 67% 30.01 in 10.0 mi Calm Calm - N/A   Clear
7:55 PM 55.4 °F 44.6 °F 67% 30.01 in 10.0 mi Calm Calm - N/A   Clear
8:15 PM 53.6 °F 44.6 °F 72% 30.02 in 10.0 mi Calm Calm - N/A   Clear
8:55 PM 51.8 °F 44.6 °F 76% 30.03 in 10.0 mi NW 3.5 mph - N/A   Clear
9:35 PM 51.8 °F 44.6 °F 76% 30.04 in 10.0 mi Calm Calm - N/A   Clear
10:15 PM 50.0 °F 44.6 °F 82% 30.06 in 10.0 mi Calm Calm - N/A   Clear
10:35 PM 48.2 °F 42.8 °F 82% 30.06 in 8.0 mi Calm Calm - N/A   Scattered Clouds
10:55 PM 48.2 °F 42.8 °F 82% 30.07 in 10.0 mi Calm Calm - N/A   Mostly Cloudy
11:15 PM 48.2 °F 42.8 °F 82% 30.08 in 10.0 mi Calm Calm - N/A   Overcast
11:55 PM 48.2 °F 44.6 °F 87% 30.08 in 10.0 mi Calm Calm - N/A   Overcast